Вернуться в каталог

STARLINK-30403

АктивенСвязьVLEO
NORAD 57813·PAYLOAD·🇺🇸 United States

Запущен Sep 9, 2023 с Cape Canaveral Space Force Station

Loading…

Ближайшие Пролёты (ближайшие 24 часа)

TLE

СвежийSource: CelesTrak SupGP

Эпоха: Sep 14, 2026, 21:30 UTC

1 57813C 23138F   26257.89631944  .00039511  00000+0  14315-2 0  2578
2 57813  43.0025 245.6909 0001446 262.4106 128.2088 15.27550358    12

Отслеживайте STARLINK-30403 в реальном времени с AllMySat

Download on the App Store